Content
SEND FEEDBACK

Daily
Averages
Monthly
Summary
United States of America

VERMILLION, SOUTH DAKOTA


Home > North America > United States > South Dakota
Elevation: 362 meters     Latitude: 42 45N     Longitude: 096 55W

WEATHER
 
SELECT A DAY
Number of Records: 464,425;   Date Range: 1/1/95 - 10/29/14
 
SHARE

PRINT THIS DATA

[ ← Previous Day ]
WEATHER ALMANAC - 13 FEBRUARY, 2013
[ Next Day → ]
[ °F ]   °C
Weather ElementAverageHighLow
Temperature2.4 °C9 °C (4:15 pm)-4 °C (4:55 am)
Dewpoint-2.4 °C0 °C (4:55 pm)-5 °C (3:35 am)
Humidity72.3 %93 % (2:35 am)50 % (4:15 pm)
Barometer1007.5 hPa1011.9 hPa (12:35 am)1004.4 hPa (2:35 pm)
Wind Speed15 km/h33.3 km/h (3:55 pm)
Wind Gust42.6 km/h (3:55 pm)
Weather ElementAverage
Visibility16.1 km
Wind DirectionSSW (218.6 °)

Weather ElementTotal
Precipitation---
Heating Degree Days15.8 (Base 18.3)
Averaged from 70 records on 13 February, 2013
WEATHER CONDITIONS BREAKOUT
WIND DIRECTION BREAKOUT
WEATHER BY HOUR - 13 FEBRUARY, 2013
[ °F ]   °C
Local TimeTemperatureDewpointHumidityBarometerVisibilityWind DirectionWind SpeedGust SpeedPrecipitationEventsConditions
12:35 AM-1 °C-4 °C80 %1011.9 hPa16.1 kmWSW (250°)7.4 km/hMostly Cloudy
12:55 AM-1 °C-4 °C80 %1011.5 hPa16.1 kmCalmOvercast
1:15 AM-1 °C-4 °C80 %1011.2 hPa16.1 kmWSW (250°)5.6 km/hOvercast
1:35 AM-1 °C-4 °C80 %1010.8 hPa16.1 kmSW (220°)7.4 km/hOvercast
1:55 AM-2 °C-4 °C86 %1010.8 hPa16.1 kmCalmPartly Cloudy
2:15 AM-2 °C-4 °C86 %1010.8 hPa16.1 kmCalmPartly Cloudy
2:35 AM-3 °C-4 °C93 %1010.8 hPa16.1 kmCalmMostly Cloudy
2:55 AM-2 °C-4 °C86 %1010.8 hPa16.1 kmWSW (250°)7.4 km/hPartly Cloudy
3:15 AM-2 °C-4 °C86 %1010.5 hPa16.1 kmWSW (240°)11.1 km/hClear
3:35 AM-2 °C-5 °C80 %1010.2 hPa16.1 kmWNW (290°)5.6 km/hClear
3:55 AM-2 °C-4 °C86 %1010.2 hPa16.1 kmWNW (300°)5.6 km/hClear
4:15 AM-2 °C-4 °C86 %1009.8 hPa16.1 kmWNW (290°)5.6 km/hClear
4:35 AM-3 °C-5 °C86 %1009.8 hPa16.1 kmCalmClear
4:55 AM-4 °C-5 °C93 %1009.5 hPa16.1 kmSSE (150°)5.6 km/hClear
5:15 AM-3 °C-5 °C86 %1009.5 hPa16.1 kmCalmClear
5:35 AM-3 °C-4 °C93 %1009.5 hPa16.1 kmSSW (200°)5.6 km/hClear
5:55 AM-4 °C-5 °C93 %1009.1 hPa16.1 kmSW (220°)7.4 km/hClear
6:15 AM-3 °C-4 °C93 %1009.5 hPa16.1 kmWest (260°)7.4 km/hClear
6:35 AM-3 °C-5 °C86 %1009.1 hPa16.1 kmCalmClear
6:55 AM-3 °C-5 °C86 %1009.1 hPa16.1 kmCalmPartly Cloudy
7:15 AM-3 °C-4 °C93 %1008.8 hPa16.1 kmSSW (210°)11.1 km/hPartly Cloudy
7:35 AM-3 °C-4 °C93 %1008.8 hPa16.1 kmSW (220°)14.8 km/hClear
7:55 AM-3 °C-5 °C86 %1008.8 hPa16.1 kmWSW (240°)5.6 km/hClear
8:15 AM-3 °C-4 °C93 %1008.8 hPa16.1 kmSW (230°)7.4 km/hClear
8:35 AM-2 °C-3 °C93 %1008.8 hPa16.1 kmSW (220°)9.3 km/hClear
8:55 AM-1 °C-4 °C80 %1008.5 hPa16.1 kmSSW (200°)9.3 km/hClear
9:15 AM0 °C-3 °C80 %1008.5 hPa16.1 kmSSW (210°)11.1 km/hClear
9:35 AM1 °C-3 °C75 %1008.1 hPa16.1 kmSW (230°)11.1 km/hClear
9:55 AM2 °C-3 °C70 %1008.1 hPa16.1 kmSW (230°)11.1 km/hClear
10:15 AM3 °C-2 °C70 %1007.8 hPa16.1 kmSW (220°)9.3 km/hClear
10:35 AM4 °C-2 °C65 %1007.8 hPa16.1 kmSW (230°)9.3 km/hClear
10:55 AM5 °C-2 °C61 %1007.8 hPa16.1 kmWSW (240°)16.7 km/hClear
11:15 AM5 °C-2 °C61 %1007.8 hPa16.1 kmWSW (250°)20.4 km/hClear
11:35 AM5 °C-2 °C61 %1007.8 hPa16.1 kmWest (260°)20.4 km/hClear
11:55 AM6 °C-2 °C57 %1007.5 hPa16.1 kmWest (260°)18.5 km/hClear
12:15 PM6 °C-2 °C57 %1007.1 hPa16.1 kmWest (270°)14.8 km/hClear
12:55 PM7 °C-2 °C53 %1006.1 hPa16.1 kmSSW (210°)18.5 km/hClear
1:15 PM7 °C-2 °C53 %1005.8 hPa16.1 kmSSW (200°)18.5 km/hClear
1:35 PM8 °C-1 °C53 %1005.4 hPa16.1 kmSW (220°)18.5 km/hClear
1:55 PM8 °C-1 °C53 %1005.1 hPa16.1 kmSW (220°)20.4 km/hPartly Cloudy
2:15 PM8 °C-1 °C53 %1004.7 hPa16.1 kmSW (220°)18.5 km/hMostly Cloudy
2:35 PM8 °C-1 °C53 %1004.4 hPa16.1 kmSW (230°)24.1 km/hMostly Cloudy
2:55 PM8 °C-1 °C53 %1004.4 hPa16.1 kmSW (230°)22.2 km/h35.2 km/hMostly Cloudy
3:15 PM8 °C-1 °C53 %1004.4 hPa16.1 kmWSW (240°)24.1 km/h33.3 km/hOvercast
3:35 PM8 °C-1 °C53 %1004.4 hPa16.1 kmWSW (250°)25.9 km/h31.5 km/hOvercast
3:55 PM8 °C-1 °C53 %1004.7 hPa16.1 kmWest (260°)33.3 km/h42.6 km/hMostly Cloudy
4:15 PM9 °C-1 °C50 %1004.7 hPa16.1 kmWest (260°)27.8 km/h37 km/hMostly Cloudy
4:35 PM8 °C-1 °C53 %1004.4 hPa16.1 kmWSW (240°)27.8 km/hMostly Cloudy
4:55 PM8 °C0 °C57 %1004.4 hPa16.1 kmWSW (250°)24.1 km/h31.5 km/hOvercast
5:15 PM7 °C-1 °C57 %1004.7 hPa16.1 kmWSW (250°)20.4 km/hScattered Clouds
5:35 PM7 °C-1 °C57 %1004.7 hPa16.1 kmWSW (240°)18.5 km/hClear
5:55 PM6 °C-1 °C61 %1004.7 hPa16.1 kmWSW (250°)18.5 km/hPartly Cloudy
6:15 PM6 °C0 °C66 %1004.7 hPa16.1 kmWSW (250°)22.2 km/hMostly Cloudy
6:35 PM6 °C0 °C66 %1004.7 hPa16.1 kmWest (260°)22.2 km/hMostly Cloudy
6:55 PM6 °C0 °C66 %1005.1 hPa16.1 kmWest (270°)16.7 km/hScattered Clouds
7:15 PM6 °C-1 °C61 %1005.1 hPa16.1 kmWest (260°)29.6 km/hPartly Cloudy
7:35 PM6 °C-1 °C61 %1005.4 hPa16.1 kmWest (270°)29.6 km/h37 km/hClear
7:55 PM6 °C-1 °C61 %1005.8 hPa16.1 kmWest (270°)29.6 km/hClear
8:15 PM6 °C-1 °C61 %1006.1 hPa16.1 kmWest (270°)24.1 km/hClear
8:35 PM5 °C-1 °C65 %1006.1 hPa16.1 kmWest (260°)24.1 km/h33.3 km/hClear
8:55 PM4 °C-1 °C70 %1006.1 hPa16.1 kmWest (260°)22.2 km/hClear
9:15 PM4 °C-1 °C70 %1006.4 hPa16.1 kmWest (280°)24.1 km/hPartly Cloudy
9:35 PM3 °C-1 °C75 %1006.8 hPa16.1 kmWest (280°)18.5 km/hScattered Clouds
9:55 PM3 °C-1 °C75 %1007.1 hPa16.1 kmWNW (290°)16.7 km/hPartly Cloudy
10:15 PM2 °C-1 °C81 %1007.1 hPa16.1 kmWest (280°)16.7 km/hClear
10:35 PM2 °C-1 °C81 %1007.1 hPa16.1 kmWest (280°)18.5 km/hClear
10:55 PM2 °C-1 °C81 %1007.5 hPa16.1 kmWest (270°)20.4 km/hClear
11:15 PM2 °C-1 °C81 %1007.8 hPa16.1 kmWest (280°)20.4 km/hClear
11:35 PM2 °C-1 °C81 %1007.8 hPa16.1 kmWest (280°)24.1 km/hPartly Cloudy
11:55 PM3 °C-1 °C75 %1008.1 hPa16.1 kmWest (280°)27.8 km/h35.2 km/hMostly Cloudy
Hourly data recorded from KYKN, located 0 kilometers away from Vermillion, South Dakota







STORIES FROM OUR PARTNERS